Chatham, MA

5:33 PM EDT on August 20, 2017 (GMT -0400)
Chatham Municipal

Weather History for KCQX - April, 2013

Change the Weather History Date:

Wednesday, April 10, 2013

  Actual Average Record
Temperature  
Mean Temperature 48 °F -  
Max Temperature 52 °F 48 °F 61 °F (1981)
Min Temperature 44 °F 35 °F 28 °F (1997)
Degree Days  
Heating Degree Days 18    
Moisture  
Dew Point 42 °F    
Average Humidity 85    
Maximum Humidity 93    
Minimum Humidity 71    
Precipitation  
Precipitation 0.33 in - - ()
Sea Level Pressure  
Sea Level Pressure 29.95 in    
Wind  
Wind Speed 6 mph (ESE)    
Max Wind Speed 15 mph    
Max Gust Speed 16 mph    
Visibility 9 miles    
Events Rain    
Averages and records for this station are not official NWS values.
T = Trace of Precipitation, MM = Missing Value Source: NWS Daily Summary

Daily Weather History Graph

Daily Weather History Graph

Search for Another Location

Airport or City:

Trip Planner

Search our weather history database for the weather conditions in past years. The results will help you decide how hot, cold, wet, or windy it might be!

Date:

Astronomy

Apr. 10, 2013 Rise Set
Actual Time 6:07 AM EDT 7:15 PM EDT
Civil Twilight 5:39 AM EDT 7:44 PM EDT
Nautical Twilight 5:05 AM EDT 8:18 PM EDT
Astronomical Twilight 4:29 AM EDT 8:54 PM EDT
Moon 6:01 AM EDT (4/10) 7:48 PM EDT (4/10)
Length of Visible Light 14h 04m
Length of Day
13h 07m
New Moon, 0% of the Moon is Illuminated
Apr 10
New Moon
Apr 18
First Quarter
Apr 25
Full
May 2
Last Quarter
May 9
New

Hourly Weather History & Observations

Time (EDT) Temp. Windchill Dew Point Humidity Pressure Visibility Wind Dir Wind Speed Gust Speed Precip Events Conditions
12:52 AM 45.0 °F 43.5 °F 43.0 °F 93% 30.01 in 10.0 mi South 3.5 mph - N/A   Clear
1:52 AM 45.0 °F 41.8 °F 42.1 °F 90% 29.95 in 10.0 mi SSE 5.8 mph - N/A   Clear
2:52 AM 45.0 °F 43.5 °F 42.1 °F 90% 29.96 in 10.0 mi Variable 3.5 mph - N/A   Clear
3:52 AM 46.0 °F 43.1 °F 41.0 °F 83% 29.96 in 10.0 mi NNE 5.8 mph - N/A   Overcast
4:52 AM 46.0 °F 44.8 °F 42.1 °F 86% 30.01 in 8.0 mi Variable 3.5 mph - 0.02 in Rain Light Rain
5:52 AM 45.0 °F 40.6 °F 43.0 °F 93% 29.93 in 8.0 mi ESE 8.1 mph 16.1 mph 0.07 in Rain Light Rain
6:52 AM 45.0 °F 40.6 °F 42.1 °F 90% 29.90 in 10.0 mi East 8.1 mph - 0.00 in   Clear
7:52 AM 46.0 °F 43.1 °F 43.0 °F 89% 29.95 in 10.0 mi NNE 5.8 mph - N/A   Scattered Clouds
8:52 AM 46.9 °F - 43.0 °F 86% 29.95 in 10.0 mi NE 6.9 mph - N/A   Mostly Cloudy
9:52 AM 48.0 °F - 43.0 °F 83% 29.95 in 10.0 mi ENE 6.9 mph - N/A   Mostly Cloudy
10:52 AM 50.0 °F - 43.0 °F 77% 29.95 in 10.0 mi ENE 8.1 mph - N/A   Mostly Cloudy
11:07 AM 50.0 °F - 42.8 °F 76% 29.95 in 10.0 mi NE 9.2 mph - N/A   Scattered Clouds
11:52 AM 51.1 °F - 44.1 °F 77% 29.96 in 10.0 mi Variable 4.6 mph - N/A   Clear
12:52 PM 51.1 °F - 43.0 °F 74% 29.98 in 10.0 mi NNE 9.2 mph - N/A   Clear
1:27 PM 50.0 °F - 42.8 °F 76% 29.98 in 10.0 mi NE 15.0 mph - N/A   Partly Cloudy
1:52 PM 50.0 °F - 43.0 °F 77% 29.99 in 10.0 mi NE 10.4 mph - N/A   Partly Cloudy
2:52 PM 48.9 °F - 42.1 °F 77% 29.98 in 10.0 mi ENE 11.5 mph - N/A   Clear
3:52 PM 50.0 °F - 41.0 °F 71% 29.95 in 10.0 mi East 6.9 mph - N/A   Clear
4:52 PM 48.9 °F - 42.1 °F 77% 29.93 in 10.0 mi East 8.1 mph - N/A   Clear
5:52 PM 46.9 °F - 41.0 °F 80% 29.95 in 10.0 mi SE 5.8 mph - N/A   Scattered Clouds
6:52 PM 48.0 °F - 41.0 °F 77% 29.97 in 10.0 mi ESE 3.5 mph - N/A   Overcast
7:48 PM 44.6 °F 40.7 °F 41.0 °F 87% 29.93 in 10.0 mi SSE 6.9 mph - N/A   Mostly Cloudy
7:52 PM 44.1 °F 39.5 °F 42.1 °F 93% 29.94 in 10.0 mi SSE 8.1 mph - N/A   Mostly Cloudy
8:07 PM 44.6 °F 40.7 °F 41.0 °F 87% 29.92 in 10.0 mi South 6.9 mph - N/A   Mostly Cloudy
8:15 PM 44.6 °F 41.4 °F 42.8 °F 93% 29.92 in 10.0 mi South 5.8 mph - N/A   Mostly Cloudy
8:52 PM 45.0 °F 42.6 °F 41.0 °F 86% 29.93 in 10.0 mi SSE 4.6 mph - N/A   Scattered Clouds
9:52 PM 45.0 °F 41.2 °F 41.0 °F 86% 30.03 in 2.0 mi West 6.9 mph - 0.08 in Rain Rain
9:59 PM 44.6 °F 42.2 °F 42.8 °F 93% 29.97 in 1.0 mi Variable 4.6 mph - 0.08 in Rain Heavy Rain
10:08 PM 44.6 °F 40.2 °F 42.8 °F 93% 29.93 in 3.0 mi South 8.1 mph - 0.11 in Rain Heavy Rain
10:52 PM 45.0 °F 42.6 °F 43.0 °F 93% 29.90 in 10.0 mi South 4.6 mph - 0.16 in   Scattered Clouds
11:41 PM 44.6 °F 43.1 °F 42.8 °F 93% 29.90 in 10.0 mi East 3.5 mph - 0.00 in Rain Light Rain
11:50 PM 44.6 °F - 42.8 °F 93% 29.90 in 10.0 mi Calm Calm - 0.00 in Rain Light Rain
11:52 PM 45.0 °F - 43.0 °F 93% 29.92 in 10.0 mi Calm Calm - 0.00 in   Overcast